Temperature
25 26 26 26 26 26 26 26 25 25 25 26 25 25 24 23 23 23 22 22 22 21 20 19 18 17 16 15 14 14 13 13 13 12 12 12 12 11 11 11 11 11 11 12
24 25 26 26 27 27 26 26 26 25 25 25 24 24 23 22 22 22 22 22 22 21 20 19 18 17 16 15 14 14 14 13 13 12 12 12 12 12 11 11 11 11 11 12
23 25 25 25 26 26 26 26 25 23 23 23 23 22 21 21 21 21 22 22 21 20 19 19 17 17 16 15 14 14 14 13 13 12 12 12 12 12 12 12 11 11 11 12
23 23 22 25 27 26 25 24 23 22 22 21 21 20 20 21 20 20 20 20 20 20 19 18 17 17 16 15 14 14 13 13 13 13 12 12 12 12 12 12 11 11 12 12
22 23 24 25 24 23 23 22 20 20 19 19 19 19 20 19 18 18 19 19 20 19 19 18 17 17 16 15 14 14 13 13 13 13 13 13 12 12 12 12 11 11 12 12
22 21 20 22 23 22 22 21 18 18 18 17 18 18 18 17 16 16 16 17 18 19 19 18 17 16 16 15 14 14 13 13 13 13 13 13 13 13 12 12 12 11 12 12
21 21 22 20 21 21 19 16 15 15 15 15 15 15 15 15 15 14 14 15 16 16 17 17 17 16 15 15 14 14 13 13 13 13 13 13 12 12 12 12 11 11 12 12
22 20 19 16 17 14 13 13 12 12 12 12 12 12 13 13 13 12 12 13 13 14 14 15 16 16 15 15 14 14 13 13 13 13 12 12 12 12 12 11 11 11 11 11
20 17 13 12 12 11 10 9 9 9 9 9 9 9 10 11 11 11 11 11 12 12 12 13 14 14 14 14 14 14 13 13 13 13 12 12 12 12 11 11 11 11 11 11
19 15 13 11 10 10 9 8 8 8 8 9 8 8 8 9 10 10 10 10 11 11 11 12 12 13 13 14 13 13 13 13 13 12 12 12 12 12 11 11 11 11 11 11
16 13 13 11 10 9 9 9 9 9 9 10 9 9 9 9 10 10 10 10 10 10 11 11 11 11 12 13 13 13 13 13 12 12 12 12 12 11 11 11 11 11 11 11
12 11 11 10 9 9 9 9 9 9 10 10 10 10 10 10 10 9 9 9 9 9 10 10 10 11 11 12 13 13 12 12 12 12 12 12 11 11 11 11 11 11 11 11
11 10 10 9 9 9 9 10 10 10 10 10 10 9 9 10 10 9 9 9 9 9 9 9 9 10 10 11 11 12 12 12 12 12 12 11 11 11 11 11 11 11 11 11
10 9 9 10 10 11 11 11 11 11 11 10 10 10 10 10 10 10 9 9 9 9 8 8 9 9 9 10 10 11 12 12 12 12 12 12 12 11 11 11 11 11 11 11
10 11 11 11 12 12 12 11 11 11 11 11 11 10 10 10 9 9 8 8 9 9 8 8 8 8 9 9 9 10 11 12 12 12 12 12 12 12 11 10 10 10 10 10
11 12 12 11 11 11 10 10 10 10 10 10 10 9 9 9 9 8 8 8 8 8 8 8 8 8 8 8 9 9 11 12 12 12 12 12 12 12 12 11 10 10 9 9
11 11 11 10 10 10 9 9 9 9 9 9 9 9 9 9 8 8 8 8 7 7 8 8 8 8 8 8 8 9 10 12 12 12 12 12 12 12 12 11 10 10 9 9
11 10 10 9 9 9 9 8 8 8 8 8 8 8 8 8 7 7 7 7 7 7 7 7 8 8 8 7 8 8 10 11 12 12 12 12 12 12 12 11 10 10 10 9
10 10 9 9 8 8 8 7 7 7 7 6 6 6 5 5 6 6 6 6 6 6 7 7 8 8 8 7 7 8 9 11 12 12 12 12 12 12 12 11 11 10 10 9
9 9 9 8 8 7 7 7 6 5 5 4 4 3 3 3 4 4 4 5 5 6 7 7 7 8 7 7 7 8 9 11 11 11 12 12 12 12 12 11 11 10 10 10
9 9 9 8 8 7 7 6 5 4 3 3 2 2 2 2 2 3 3 4 5 6 7 7 7 7 7 7 7 8 9 10 11 11 12 12 12 12 11 11 11 11 11 10
9 8 8 8 7 7 6 4 3 2 2 2 2 2 2 2 2 2 3 4 5 6 6 7 7 7 7 7 8 8 9 10 11 12 12 12 12 12 12 11 11 11 11 11
8 8 8 8 7 6 4 3 2 1 1 2 2 2 2 2 2 2 3 4 5 6 6 7 7 7 7 7 8 9 10 11 12 12 12 12 12 12 12 12 12 12 12 12
8 8 8 7 6 4 3 2 1 1 2 2 3 3 3 3 3 3 4 5 5 6 6 7 7 7 7 7 8 9 10 11 12 12 12 12 12 12 12 12 12 12 12 12
8 7 7 6 4 3 2 1 2 2 2 3 4 4 4 3 3 4 4 5 6 6 7 7 7 7 7 7 8 9 10 11 12 12 12 12 12 12 12 12 12 13 13 13
7 7 6 5 3 2 2 2 2 2 3 4 4 5 4 4 4 5 5 6 7 7 7 7 7 7 7 8 8 9 10 11 12 13 13 13 12 12 13 12 13 13 13 13
6 6 5 4 3 2 2 2 2 3 3 4 5 5 5 5 5 6 6 6 7 7 8 8 7 7 7 8 9 9 10 11 12 13 14 13 13 13 13 13 13 13 13 13
Wind_Speed
16 19 21 22 20 19 19 19 20 21 20 17 14 13 12 12 14 15 14 11 8 5 3 3 4 5 6 6 5 5 5 5 5 4 3 3 4 5 4 2 1 1 1 1
19 21 22 22 19 18 17 16 15 15 14 14 14 13 14 14 16 18 17 13 9 6 5 4 5 6 6 6 5 6 6 5 6 5 4 4 5 5 5 4 2 0 1 4
17 19 18 15 12 8 8 10 12 13 12 15 14 15 15 15 17 20 17 12 8 6 5 4 5 5 5 6 6 5 5 6 7 7 6 6 7 7 6 5 4 2 4 8
14 17 15 10 9 10 8 6 12 13 14 16 17 17 15 14 15 16 16 13 9 6 5 6 6 7 6 7 6 6 6 6 8 8 7 6 6 7 6 5 5 4 7 8
11 15 15 12 11 10 8 6 14 14 16 18 20 20 16 18 22 21 18 14 10 7 8 6 7 7 6 7 7 7 8 7 10 11 10 8 7 7 5 5 6 6 7 8
12 15 16 9 10 11 9 9 15 17 18 20 22 19 17 22 23 24 23 17 13 9 8 7 7 7 7 8 9 10 9 8 11 12 12 11 10 7 5 5 6 7 7 7
14 15 9 11 13 12 7 10 19 21 21 21 19 18 21 24 23 23 21 21 19 14 8 7 8 8 9 9 10 11 10 9 10 13 14 13 10 8 6 6 7 7 7 7
10 12 6 19 11 9 9 14 19 21 21 20 21 23 24 25 25 24 23 22 21 18 14 9 9 11 11 11 9 9 10 10 9 11 13 14 13 11 9 8 7 7 7 6
5 4 9 15 12 12 14 15 17 18 20 21 21 23 26 26 25 23 23 21 18 18 17 15 12 12 14 12 10 9 10 11 9 10 10 11 14 14 11 9 9 9 9 8
5 9 9 14 14 15 15 16 16 16 19 19 18 20 23 24 23 22 21 20 18 17 18 16 16 16 15 12 11 10 10 10 9 9 9 10 11 11 12 12 10 10 10 9
7 10 10 14 17 18 19 20 21 21 21 20 18 19 20 19 19 18 19 19 19 17 16 17 14 18 16 15 13 12 11 10 11 11 10 10 11 10 11 10 10 9 8 8
5 8 10 13 15 16 17 19 21 23 24 24 23 25 24 20 18 17 18 18 20 21 20 19 15 14 16 14 15 14 12 11 11 11 10 10 10 7 3 5 10 12 10 10
6 10 12 15 18 19 21 24 25 25 25 25 25 25 25 22 20 19 17 19 20 21 22 22 19 14 15 13 12 15 14 12 12 12 12 12 12 12 9 6 6 10 15 16
8 11 16 20 23 24 26 27 27 27 27 26 24 24 24 23 22 21 20 18 20 20 20 22 22 17 11 14 12 15 16 15 13 12 13 12 12 13 12 12 10 7 8 16
13 16 21 25 26 28 28 29 30 29 28 26 23 22 22 22 22 22 22 22 21 21 19 19 21 19 10 12 15 16 18 15 15 13 12 12 11 13 13 14 13 12 9 7
21 23 26 28 29 30 30 31 30 29 28 27 25 24 24 22 21 21 22 21 21 22 18 15 17 19 12 10 17 15 18 20 17 14 13 13 12 12 12 12 12 13 14 12
25 26 27 29 30 30 30 29 28 27 27 27 27 26 25 23 22 20 21 21 20 20 19 15 15 16 12 9 14 14 16 18 18 16 15 13 13 12 11 12 13 13 14 16
24 25 26 27 28 30 30 29 28 28 27 27 27 26 24 23 23 22 21 22 22 21 20 17 14 14 10 8 12 13 14 16 15 15 14 13 12 11 11 12 14 15 12 15
26 27 27 27 28 29 29 28 29 28 27 26 27 26 26 25 24 23 23 23 23 22 20 17 15 13 11 9 13 11 13 16 15 13 12 13 13 12 11 13 14 13 13 15
26 28 29 29 28 28 28 28 29 28 27 26 27 27 27 26 25 24 23 22 19 18 18 17 15 12 10 10 13 9 12 14 15 15 13 13 14 12 12 13 14 14 13 13
28 30 31 30 28 28 28 27 26 26 27 26 27 27 27 26 24 22 20 19 19 18 17 15 12 10 8 8 11 9 12 12 14 15 15 14 14 13 13 13 14 14 13 12
29 29 30 29 28 28 26 25 26 28 29 29 29 27 25 22 21 19 20 17 17 17 14 12 11 8 7 9 8 10 13 13 14 15 15 13 13 13 14 15 14 14 13 13
27 28 28 28 27 26 27 27 28 29 29 29 28 25 21 16 13 13 14 13 12 13 12 11 9 5 7 7 7 10 10 11 12 15 14 13 12 13 13 14 13 13 12 12
26 26 27 25 25 26 28 30 29 26 28 28 24 21 16 11 10 11 11 12 13 14 11 9 6 6 7 6 5 6 6 8 10 14 15 14 13 13 12 11 11 11 11 13
25 25 25 25 23 21 25 28 29 27 26 22 22 17 11 8 8 9 10 11 12 11 9 6 7 7 6 5 5 5 6 8 9 12 14 14 14 14 13 12 12 12 12 11
23 21 20 19 18 18 20 22 22 22 22 21 18 12 8 6 8 8 8 10 11 9 7 5 4 6 5 6 6 6 7 8 8 9 13 16 17 16 14 14 15 13 12 12
23 20 17 19 19 19 21 22 23 23 23 22 19 13 10 8 7 7 9 8 8 7 6 4 4 4 5 6 7 7 9 9 8 8 10 13 14 14 14 15 13 12 11 12
Wind_Direction
293 298 295 290 288 289 287 283 284 290 297 314 337 345 355 354 343 330 320 308 296 290 283 261 248 235 242 250 248 251 256 238 206 190 181 157 142 153 166 200 229 8 30 63
292 291 290 286 281 282 283 284 289 303 317 347 354 357 358 352 339 325 312 302 295 309 305 266 245 243 238 230 234 240 248 241 197 189 177 149 147 153 147 141 124 76 14 59
290 297 302 294 300 297 304 319 328 327 342 358 359 356 348 338 322 314 308 301 301 303 297 258 246 243 235 225 227 238 242 233 187 184 175 164 162 156 152 152 153 148 86 79
284 291 287 293 348 327 310 353 7 360 3 359 349 341 332 327 335 343 337 323 307 298 289 254 237 232 220 217 212 217 226 210 176 174 168 164 158 153 165 169 152 129 106 99
285 289 294 315 19 10 344 342 35 6 353 346 339 327 326 348 344 332 322 310 291 266 267 261 240 236 222 207 206 213 216 198 175 171 167 167 160 161 173 164 148 146 128 123
274 289 292 324 2 352 315 277 22 1 350 344 340 330 328 335 330 330 333 326 317 279 246 241 232 229 226 215 205 209 211 204 178 172 174 179 176 173 178 170 164 161 149 146
261 270 272 22 2 350 322 348 359 356 353 349 342 329 325 329 332 332 333 336 337 323 269 238 222 213 220 224 214 205 204 207 188 177 181 186 185 182 181 182 178 172 162 156
298 295 314 22 34 35 2 359 5 0 356 350 342 335 332 331 331 330 332 336 340 339 327 286 241 216 216 220 217 204 201 205 202 184 187 192 189 191 191 188 179 169 162 157
351 46 75 53 53 33 19 10 5 356 344 343 341 337 331 328 326 325 328 330 334 332 331 320 286 243 223 215 209 210 206 202 201 190 195 186 186 189 189 189 189 180 173 172
333 74 68 54 31 17 8 356 345 336 328 328 328 323 317 314 315 318 320 321 322 325 325 327 326 285 243 221 205 208 211 200 190 187 185 180 183 184 187 189 193 188 185 184
349 16 358 10 3 351 342 334 327 321 313 307 300 295 294 296 301 307 311 312 314 312 312 313 326 322 273 229 209 207 206 198 188 188 183 181 185 188 195 194 194 190 190 178
2 1 335 328 328 319 311 306 303 302 303 304 306 305 301 297 297 299 303 307 308 310 311 312 314 327 310 257 215 204 203 198 191 187 180 180 177 161 74 178 191 200 182 160
349 329 311 301 296 295 294 295 296 297 299 300 299 297 297 297 295 293 293 296 298 303 308 310 311 314 327 299 243 211 203 195 191 188 185 183 174 166 151 98 94 148 149 144
315 299 295 297 300 300 298 298 297 295 292 290 289 289 292 295 297 299 298 293 293 295 299 304 306 307 323 334 287 232 209 195 191 191 188 185 175 171 168 163 157 140 128 138
306 301 301 306 309 312 313 313 312 310 308 306 302 298 298 299 302 306 307 304 297 293 293 299 302 303 310 340 321 257 215 201 194 191 186 184 180 178 176 175 174 163 142 135
319 321 323 322 321 320 320 319 317 314 313 310 308 305 301 297 297 298 300 302 300 295 291 292 296 299 303 328 332 280 221 202 190 189 185 182 185 187 184 179 177 169 166 164
329 327 327 324 321 319 319 317 314 313 312 310 308 305 301 297 294 292 293 296 298 296 290 284 286 292 297 317 326 283 223 200 190 190 189 185 183 188 186 179 180 177 175 174
326 323 321 321 321 319 317 317 315 313 311 310 309 307 304 302 298 297 297 295 296 295 289 281 278 283 288 304 313 277 224 195 191 191 186 185 181 186 187 181 181 181 176 171
325 322 321 323 323 319 317 316 314 312 312 311 310 308 306 305 302 303 303 298 294 293 289 282 274 274 278 290 303 268 224 195 185 190 187 178 178 185 184 177 176 178 178 172
323 322 322 321 322 320 317 315 316 314 313 312 308 302 298 295 294 294 295 291 286 286 288 286 284 280 279 291 295 261 221 198 184 187 188 185 186 186 182 178 180 182 183 180
324 324 323 322 321 320 317 318 318 316 316 313 307 300 296 293 290 287 286 284 284 285 286 284 280 276 277 291 286 252 224 208 188 184 188 186 184 183 183 185 187 190 192 190
324 324 324 323 322 322 325 328 325 321 317 311 306 300 294 289 285 281 276 274 278 281 283 282 279 268 269 290 270 236 221 211 190 182 186 186 182 182 181 185 190 193 199 195
323 324 326 326 328 333 334 331 326 321 316 313 309 304 296 286 280 275 275 276 282 290 291 289 283 258 277 278 250 223 212 211 193 179 181 182 181 184 187 188 190 192 196 192
326 329 329 333 340 340 333 328 323 319 316 314 311 308 301 289 279 270 270 277 282 287 290 288 254 242 267 259 238 213 205 214 195 177 181 184 183 184 188 193 196 194 192 193
331 332 335 342 344 338 329 324 323 321 320 321 318 317 310 286 277 281 285 288 290 286 287 273 232 237 256 250 223 210 216 220 200 181 179 184 188 189 190 196 198 195 196 201
337 336 339 343 342 332 328 325 323 323 325 326 327 327 323 304 287 283 283 288 297 297 292 281 233 228 244 233 217 224 238 231 216 197 184 183 190 193 195 197 199 203 202 203
337 337 339 339 336 333 328 324 323 323 325 328 332 330 324 311 297 291 292 296 299 304 296 273 234 223 230 218 210 228 239 230 218 207 192 187 189 192 195 194 198 203 209 210
Height
1496 1490 1485 1482 1479 1476 1478 1477 1481 1477 1474 1470 1468 1469 1470 1471 1472 1471 1470 1468 1467 1466 1466 1465 1465 1465 1464 1464 1463 1461 1460 1459 1457 1456 1455 1455 1455 1455 1455 1456 1456 1457 1457 1459
1498 1488 1480 1475 1470 1469 1470 1469 1469 1470 1471 1468 1470 1471 1472 1473 1473 1471 1468 1465 1463 1463 1462 1461 1461 1460 1460 1459 1459 1458 1457 1456 1455 1454 1455 1455 1455 1456 1457 1457 1459 1460 1461 1462
1499 1486 1480 1480 1466 1465 1467 1467 1471 1476 1476 1473 1473 1475 1475 1474 1473 1469 1464 1461 1460 1459 1459 1458 1457 1456 1455 1455 1455 1455 1454 1453 1452 1452 1453 1454 1455 1456 1457 1459 1460 1462 1464 1464
1498 1493 1499 1475 1462 1462 1466 1470 1474 1476 1477 1478 1478 1477 1476 1474 1471 1468 1465 1462 1459 1456 1455 1454 1452 1452 1451 1450 1450 1450 1450 1450 1449 1450 1452 1454 1455 1456 1458 1460 1461 1463 1465 1466
1499 1495 1484 1471 1471 1474 1477 1480 1486 1484 1484 1482 1480 1476 1473 1473 1472 1469 1464 1460 1456 1452 1450 1449 1448 1447 1447 1446 1446 1446 1446 1446 1446 1448 1450 1452 1453 1455 1457 1459 1461 1464 1465 1467
1499 1503 1503 1484 1477 1478 1480 1483 1489 1489 1487 1485 1480 1477 1474 1475 1472 1467 1462 1456 1451 1446 1443 1443 1442 1442 1442 1441 1441 1441 1442 1443 1443 1445 1447 1450 1452 1454 1456 1459 1461 1463 1465 1468
1496 1496 1487 1490 1484 1483 1493 1500 1495 1492 1489 1487 1486 1485 1479 1474 1470 1465 1458 1451 1446 1442 1437 1436 1435 1435 1435 1435 1436 1436 1437 1439 1440 1441 1443 1446 1449 1452 1454 1457 1460 1463 1465 1467
1488 1493 1497 1498 1494 1503 1509 1504 1500 1498 1496 1492 1488 1484 1479 1474 1469 1463 1456 1448 1442 1438 1433 1431 1429 1427 1426 1427 1429 1431 1432 1434 1436 1437 1439 1442 1444 1448 1451 1455 1458 1461 1463 1466
1493 1503 1511 1508 1510 1512 1510 1506 1502 1500 1499 1493 1485 1482 1478 1472 1467 1461 1454 1447 1440 1435 1430 1426 1423 1420 1418 1419 1422 1424 1426 1428 1430 1433 1435 1437 1440 1443 1447 1451 1455 1458 1461 1463
1494 1503 1508 1509 1511 1511 1509 1507 1503 1500 1496 1489 1482 1477 1473 1468 1462 1456 1450 1444 1438 1431 1424 1419 1416 1412 1410 1412 1415 1417 1419 1421 1424 1427 1430 1432 1436 1439 1443 1447 1451 1455 1458 1461
1499 1508 1507 1507 1510 1509 1507 1503 1498 1492 1487 1481 1476 1471 1467 1461 1455 1449 1444 1439 1435 1429 1422 1414 1409 1404 1401 1405 1407 1409 1412 1415 1418 1421 1424 1427 1431 1435 1440 1444 1448 1451 1455 1458
1513 1516 1515 1512 1509 1505 1500 1495 1490 1484 1478 1474 1470 1465 1460 1454 1449 1443 1438 1433 1428 1423 1417 1410 1403 1398 1394 1394 1398 1402 1405 1409 1412 1415 1419 1423 1427 1431 1436 1440 1444 1448 1452 1456
1517 1516 1514 1509 1504 1499 1493 1488 1482 1477 1471 1466 1461 1456 1452 1446 1441 1435 1430 1426 1422 1416 1410 1405 1398 1392 1389 1387 1387 1392 1398 1401 1405 1409 1413 1418 1422 1426 1430 1436 1440 1445 1449 1452
1515 1511 1507 1501 1496 1490 1484 1478 1472 1466 1460 1455 1450 1446 1442 1437 1431 1427 1423 1418 1414 1409 1404 1398 1393 1389 1386 1383 1380 1383 1390 1395 1398 1402 1407 1412 1417 1421 1426 1430 1435 1440 1445 1449
1510 1506 1500 1493 1486 1480 1474 1468 1462 1455 1450 1445 1441 1437 1432 1428 1423 1419 1415 1411 1406 1401 1396 1392 1388 1385 1383 1379 1376 1375 1382 1388 1391 1396 1401 1407 1412 1417 1422 1426 1431 1435 1439 1444
1504 1499 1493 1487 1480 1474 1468 1461 1455 1448 1442 1437 1432 1428 1424 1419 1414 1410 1407 1403 1398 1392 1388 1384 1381 1379 1377 1373 1370 1368 1373 1380 1385 1390 1395 1401 1406 1412 1417 1421 1426 1430 1434 1438
1500 1493 1487 1481 1475 1468 1462 1456 1449 1442 1435 1429 1424 1419 1414 1409 1404 1401 1398 1394 1389 1384 1380 1377 1374 1372 1371 1368 1364 1360 1365 1374 1379 1384 1389 1394 1400 1406 1411 1416 1421 1426 1430 1433
1498 1492 1486 1479 1471 1463 1455 1448 1442 1435 1428 1422 1415 1410 1404 1399 1394 1390 1387 1384 1379 1374 1371 1368 1365 1364 1363 1361 1357 1353 1358 1367 1372 1378 1383 1389 1394 1401 1407 1411 1416 1421 1426 1430
1492 1486 1480 1473 1467 1459 1450 1442 1435 1427 1419 1412 1405 1399 1393 1388 1384 1379 1376 1373 1369 1364 1360 1358 1356 1355 1355 1353 1349 1345 1350 1360 1366 1372 1378 1383 1390 1396 1402 1406 1411 1417 1422 1426
1486 1480 1473 1467 1460 1453 1444 1435 1427 1418 1409 1401 1393 1386 1379 1373 1370 1367 1364 1361 1358 1355 1352 1349 1348 1346 1346 1344 1340 1339 1344 1353 1360 1366 1373 1379 1385 1391 1397 1402 1408 1413 1418 1423
1480 1473 1467 1459 1452 1444 1436 1427 1417 1407 1397 1389 1380 1371 1364 1358 1355 1353 1351 1348 1345 1345 1343 1341 1339 1338 1337 1335 1333 1333 1339 1348 1355 1362 1368 1374 1380 1386 1392 1398 1404 1409 1414 1419
1475 1468 1460 1452 1444 1435 1427 1418 1408 1397 1386 1375 1365 1356 1348 1342 1340 1339 1338 1338 1336 1336 1335 1333 1332 1331 1330 1329 1327 1330 1336 1344 1351 1358 1364 1370 1376 1382 1388 1394 1399 1404 1409 1414
1470 1462 1455 1446 1438 1429 1419 1409 1398 1386 1374 1363 1352 1343 1335 1331 1329 1329 1328 1329 1330 1329 1328 1327 1326 1325 1323 1322 1323 1327 1334 1341 1348 1355 1361 1367 1373 1380 1385 1391 1396 1400 1405 1410
1465 1457 1450 1442 1433 1424 1413 1400 1388 1376 1365 1354 1344 1335 1328 1324 1323 1323 1324 1324 1324 1323 1322 1321 1321 1319 1318 1318 1320 1326 1332 1339 1346 1353 1359 1365 1371 1377 1382 1388 1393 1397 1402 1406
1460 1453 1446 1438 1429 1420 1409 1395 1381 1368 1357 1347 1338 1331 1326 1323 1322 1322 1322 1322 1321 1320 1319 1317 1316 1315 1315 1316 1320 1326 1332 1338 1345 1351 1357 1363 1369 1374 1379 1384 1389 1393 1398 1402
1458 1451 1444 1436 1428 1418 1405 1392 1379 1365 1354 1344 1336 1330 1326 1323 1322 1321 1320 1320 1319 1318 1316 1315 1314 1314 1314 1317 1321 1327 1332 1338 1344 1350 1355 1360 1366 1371 1376 1381 1385 1390 1394 1398
1455 1448 1440 1431 1422 1413 1402 1390 1377 1364 1353 1344 1337 1331 1327 1325 1322 1321 1320 1319 1318 1317 1315 1313 1313 1313 1314 1317 1322 1328 1333 1338 1343 1348 1353 1358 1363 1368 1372 1377 1381 1386 1390 1394